CKS9182 FACT-OEHL

Flight info

Callsign CKS9182
Flight time N/A
Altitude 27000
Route KODES1A KODES UZ30 IMKIV/N0495F290 UT916 VLS UA409 KMI UY198 KNM UB527 ASEKA/N0496F300 UB527 OVELA L567 IMDUR/N0494F310 M320 MIPOL G660 JDW A424 RULEB/N0483F320 A424 PMA/N0482F310 A424 HAMED
Aircraft B77L/H-SDE1E2E3FGHIJ2J3J4J5M1RWXY/LB1D1

Departure

Time N/A
Airport Cape Town International Airport (FACT)

Arrival

Time 2026-04-18 02:19
Airport Hail International Airport (OEHL)
Time Latitude Longitude Altitude Speed Heading
2026-04-18 02:00 26.55620 41.07431 27459 ft 437 kts 25°
2026-04-18 02:00 26.58194 41.09217 27027 ft 433 kts 25°
2026-04-18 02:00 26.60716 41.10966 26613 ft 430 kts 25°
2026-04-18 02:01 26.63247 41.12723 26179 ft 427 kts 25°
2026-04-18 02:01 26.65768 41.14474 25761 ft 425 kts 26°
2026-04-18 02:01 26.68271 41.16214 25339 ft 422 kts 26°
2026-04-18 02:01 26.70758 41.17944 24924 ft 420 kts 26°
2026-04-18 02:02 26.73242 41.19673 24511 ft 419 kts 27°
2026-04-18 02:02 26.75712 41.21393 24082 ft 418 kts 27°
2026-04-18 02:02 26.78175 41.23109 23662 ft 416 kts 27°
2026-04-18 02:02 26.79801 41.24243 23346 ft 416 kts 27°
2026-04-18 02:03 26.82250 41.25951 22887 ft 414 kts 27°
2026-04-18 02:03 26.84736 41.27528 22451 ft 408 kts 21°
2026-04-18 02:03 26.87330 41.28763 22037 ft 401 kts 15°
2026-04-18 02:03 26.90844 41.29912 21476 ft 394 kts
2026-04-18 02:04 26.92637 41.30395 21206 ft 392 kts
2026-04-18 02:04 26.95282 41.31099 20803 ft 389 kts
2026-04-18 02:04 26.97910 41.31800 20398 ft 387 kts
2026-04-18 02:04 27.00522 41.32503 19990 ft 385 kts
2026-04-18 02:05 27.03114 41.33206 19587 ft 383 kts
2026-04-18 02:05 27.05699 41.33910 19188 ft 381 kts
2026-04-18 02:05 27.08269 41.34612 18780 ft 379 kts
2026-04-18 02:05 27.10830 41.35314 18373 ft 378 kts
2026-04-18 02:06 27.13377 41.36012 17918 ft 376 kts
2026-04-18 02:06 27.15881 41.36699 17499 ft 374 kts
2026-04-18 02:06 27.18426 41.37398 17090 ft 370 kts 10°
2026-04-18 02:06 27.20888 41.38074 16693 ft 367 kts 10°
2026-04-18 02:07 27.23359 41.38753 16309 ft 364 kts 10°
2026-04-18 02:07 27.25811 41.39427 15911 ft 361 kts 10°
2026-04-18 02:07 27.28246 41.40097 15529 ft 358 kts 10°
2026-04-18 02:07 27.30655 41.40619 15131 ft 346 kts 358°
2026-04-18 02:08 27.32973 41.40240 14776 ft 331 kts 337°
2026-04-18 02:08 27.35164 41.39398 14464 ft 337 kts 339°
2026-04-18 02:08 27.37457 41.38693 14108 ft 346 kts 344°
2026-04-18 02:08 27.39848 41.38238 13722 ft 351 kts 350°
2026-04-18 02:09 27.42287 41.38074 13313 ft 351 kts 356°
2026-04-18 02:09 27.44694 41.38188 12938 ft 349 kts
2026-04-18 02:09 27.47098 41.38550 12563 ft 348 kts
2026-04-18 02:09 27.49456 41.39145 12176 ft 346 kts 12°
2026-04-18 02:10 27.51750 41.39964 11814 ft 346 kts 18°
2026-04-18 02:10 27.53968 41.41003 11445 ft 346 kts 23°
2026-04-18 02:10 27.56097 41.42265 11087 ft 345 kts 28°
2026-04-18 02:10 27.58111 41.43743 10701 ft 346 kts 34°
2026-04-18 02:11 27.59984 41.45412 10492 ft 339 kts 40°
2026-04-18 02:11 27.61674 41.47213 10326 ft 329 kts 46°
2026-04-18 02:11 27.63174 41.49116 10172 ft 319 kts 51°
2026-04-18 02:11 27.64464 41.51062 10046 ft 308 kts 56°
2026-04-18 02:12 27.65602 41.53093 9784 ft 306 kts 60°
2026-04-18 02:12 27.66590 41.55204 9430 ft 302 kts 65°
2026-04-18 02:12 27.67420 41.57368 9092 ft 298 kts 70°
2026-04-18 02:12 27.68087 41.59562 8746 ft 293 kts 75°
2026-04-18 02:13 27.68596 41.61771 8413 ft 288 kts 79°
2026-04-18 02:13 27.68959 41.63968 8110 ft 281 kts 84°
2026-04-18 02:13 27.69189 41.66120 7824 ft 271 kts 91°
2026-04-18 02:13 27.68919 41.68137 7623 ft 247 kts 103°
2026-04-18 02:14 27.68542 41.69918 7574 ft 223 kts 121°
2026-04-18 02:14 27.67550 41.71094 7352 ft 199 kts 160°
2026-04-18 02:14 27.66225 41.71274 7187 ft 193 kts 197°
2026-04-18 02:14 27.64974 41.70798 6986 ft 193 kts 201°
2026-04-18 02:15 27.63678 41.70398 6734 ft 192 kts 195°
2026-04-18 02:15 27.62384 41.70117 6491 ft 187 kts 193°
2026-04-18 02:15 27.61118 41.69884 6276 ft 183 kts 191°
2026-04-18 02:15 27.59845 41.69741 6032 ft 184 kts 187°
2026-04-18 02:16 27.58567 41.69641 5811 ft 184 kts 187°
2026-04-18 02:16 27.57293 41.69552 5584 ft 183 kts 186°
2026-04-18 02:16 27.56056 41.69467 5324 ft 170 kts 186°
2026-04-18 02:16 27.54943 41.69392 5130 ft 150 kts 186°
2026-04-18 02:17 27.53935 41.69322 4963 ft 144 kts 187°
2026-04-18 02:17 27.52939 41.69252 4783 ft 143 kts 186°
2026-04-18 02:17 27.51947 41.69183 4591 ft 144 kts 185°
2026-04-18 02:17 27.50933 41.69113 4407 ft 147 kts 184°
2026-04-18 02:18 27.49901 41.69056 4262 ft 148 kts 183°
2026-04-18 02:18 27.48867 41.68986 4023 ft 155 kts 187°
2026-04-18 02:18 27.47792 41.68894 3788 ft 154 kts 185°
2026-04-18 02:18 27.46738 41.68823 3592 ft 152 kts 181°
2026-04-18 02:19 27.45667 41.68755 3396 ft 156 kts 186°
2026-04-18 02:19 27.44608 41.68681 3290 ft 143 kts 185°
2026-04-18 02:19 27.43752 41.68621 3297 ft 98 kts 183°
2026-04-18 02:19 27.43292 41.68594 3304 ft 34 kts 177°
2026-04-18 02:20 27.43120 41.68640 3305 ft 25 kts 156°
2026-04-18 02:20 27.43034 41.68686 3305 ft 0 kts 154°
2026-04-18 02:20 27.42991 41.68711 3306 ft 18 kts 146°
2026-04-18 02:21 27.42993 41.68791 3305 ft 14 kts 28°
2026-04-18 02:21 27.43131 41.68807 3304 ft 23 kts
2026-04-18 02:21 27.43289 41.68818 3302 ft 23 kts
2026-04-18 02:21 27.43449 41.68828 3300 ft 23 kts
2026-04-18 02:22 27.43609 41.68839 3298 ft 23 kts
2026-04-18 02:22 27.43710 41.68852 3297 ft 11 kts 22°
2026-04-18 02:22 27.43724 41.68920 3297 ft 9 kts 95°
2026-04-18 02:22 27.43723 41.68934 3297 ft 0 kts 95°